When you browse on this site, cookies collect data to enhance your experience and personalize the content and advertising you see.
Visit our Privacy Policy to learn more. By continuing to use the site, you agree to this use of cookies and data.
  • In Hungary
  • List of Countries
  • For 7 days
  • Water Temperature
  • Weather Map
  • News
  • Weather Widgets
  • user-avatar
    Login

    Hourly Weather Yurino

    Today, 17 October, Thursday

    Time Temperature Precipitation Wind Pressure Humidity
    00:00 +2°C° 0.1 mm 3 mps 763 mmHg 87%
    01:00 +1°C° 0.2 mm 4 mps 763 mmHg 87%
    02:00 +1°C° 0.2 mm 4 mps 763 mmHg 88%
    03:00 +3°C° 0 mm 4 mps 763 mmHg 86%
    04:00 +3°C° 0 mm 4 mps 762 mmHg 84%
    05:00 +2°C° 0 mm 5 mps 761 mmHg 81%
    06:00 +2°C° 0 mm 5 mps 760 mmHg 79%
    07:00 +2°C° 0 mm 5 mps 760 mmHg 78%
    08:00 +3°C° 0 mm 5 mps 759 mmHg 76%
    09:00 +4°C° 0 mm 6 mps 758 mmHg 73%
    10:00 +5°C° 0 mm 6 mps 758 mmHg 73%
    11:00 +8°C° 0 mm 6 mps 757 mmHg 72%
    12:00 +9°C° 0 mm 6 mps 757 mmHg 72%
    13:00 +10°C° 0 mm 5 mps 756 mmHg 74%
    14:00 +10°C° 0 mm 5 mps 756 mmHg 77%
    15:00 +11°C° 0 mm 4 mps 756 mmHg 79%
    16:00 +11°C° 0 mm 4 mps 756 mmHg 83%
    17:00 +10°C° 0 mm 4 mps 755 mmHg 87%
    18:00 +9°C° 0 mm 3 mps 755 mmHg 91%
    19:00 +9°C° 0 mm 3 mps 755 mmHg 92%
    20:00 +9°C° 0 mm 3 mps 755 mmHg 93%
    21:00 +9°C° 0 mm 3 mps 755 mmHg 94%
    22:00 +9°C° 0 mm 3 mps 755 mmHg 94%
    23:00 +9°C° 0 mm 3 mps 754 mmHg 95%

    Tomorrow, 18 October, Friday

    Time Temperature Precipitation Wind Pressure Humidity
    00:00 +9°C° 0 mm 3 mps 754 mmHg 95%
    01:00 +9°C° 0 mm 3 mps 754 mmHg 95%
    02:00 +9°C° 0 mm 3 mps 753 mmHg 95%
    03:00 +10°C° 0 mm 3 mps 753 mmHg 95%
    04:00 +10°C° 0 mm 3 mps 753 mmHg 96%
    05:00 +10°C° 0 mm 3 mps 752 mmHg 96%
    06:00 +10°C° 0 mm 3 mps 751 mmHg 96%
    07:00 +10°C° 0.6 mm 3 mps 751 mmHg 96%
    08:00 +10°C° 0.6 mm 3 mps 751 mmHg 96%
    09:00 +10°C° 0.6 mm 4 mps 751 mmHg 95%
    10:00 +10°C° 0.6 mm 4 mps 752 mmHg 94%
    11:00 +11°C° 0.6 mm 4 mps 752 mmHg 93%
    12:00 +11°C° 0.6 mm 4 mps 752 mmHg 91%
    13:00 +10°C° 0 mm 3 mps 753 mmHg 91%
    14:00 +10°C° 0 mm 3 mps 753 mmHg 91%
    15:00 +10°C° 0 mm 3 mps 754 mmHg 91%
    16:00 +9°C° 0 mm 3 mps 754 mmHg 91%
    17:00 +8°C° 0 mm 3 mps 755 mmHg 90%
    18:00 +5°C° 0 mm 3 mps 755 mmHg 90%
    19:00 +5°C° 0 mm 3 mps 756 mmHg 89%
    20:00 +4°C° 0 mm 3 mps 756 mmHg 89%
    21:00 +4°C° 0 mm 3 mps 757 mmHg 88%
    22:00 +4°C° 0 mm 3 mps 757 mmHg 88%
    23:00 +3°C° 0 mm 3 mps 757 mmHg 88%

    Day after tomorrow, 19 October, Saturday

    Time Temperature Precipitation Wind Pressure Humidity
    00:00 +3°C° 0 mm 3 mps 758 mmHg 88%
    01:00 +3°C° 0 mm 3 mps 758 mmHg 88%
    02:00 +3°C° 0 mm 3 mps 759 mmHg 88%
    03:00 +4°C° 0 mm 2 mps 759 mmHg 88%
    04:00 +4°C° 0 mm 2 mps 759 mmHg 88%
    05:00 +4°C° 0 mm 2 mps 760 mmHg 88%
    06:00 +4°C° 0 mm 2 mps 760 mmHg 88%
    07:00 +4°C° 0 mm 2 mps 760 mmHg 87%
    08:00 +4°C° 0 mm 2 mps 761 mmHg 86%
    09:00 +5°C° 0 mm 1 mps 761 mmHg 85%
    10:00 +6°C° 0 mm 1 mps 762 mmHg 83%
    11:00 +7°C° 0 mm 1 mps 762 mmHg 81%
    12:00 +7°C° 0 mm 1 mps 762 mmHg 79%
    13:00 +7°C° 0 mm 1 mps 762 mmHg 79%
    14:00 +7°C° 0 mm 1 mps 762 mmHg 79%
    15:00 +8°C° 0 mm 1 mps 762 mmHg 79%
    16:00 +7°C° 0 mm 1 mps 762 mmHg 81%
    17:00 +7°C° 0 mm 1 mps 762 mmHg 83%
    18:00 +6°C° 0 mm 2 mps 762 mmHg 85%
    19:00 +6°C° 0 mm 2 mps 763 mmHg 85%
    20:00 +6°C° 0 mm 2 mps 763 mmHg 85%
    21:00 +6°C° 0 mm 2 mps 763 mmHg 85%
    22:00 +6°C° 0 mm 2 mps 763 mmHg 86%
    23:00 +6°C° 0 mm 2 mps 763 mmHg 86%

    20 October, Sunday

    Time Temperature Precipitation Wind Pressure Humidity
    00:00 +5°C° 0 mm 3 mps 763 mmHg 86%
    01:00 +5°C° 0 mm 3 mps 763 mmHg 87%
    02:00 +4°C° 0 mm 3 mps 763 mmHg 89%
    03:00 +5°C° 0 mm 2 mps 763 mmHg 90%
    04:00 +4°C° 0 mm 3 mps 763 mmHg 89%
    05:00 +5°C° 0 mm 3 mps 763 mmHg 89%
    06:00 +5°C° 0 mm 3 mps 763 mmHg 89%
    07:00 +5°C° 0 mm 4 mps 763 mmHg 88%
    08:00 +6°C° 0 mm 4 mps 762 mmHg 88%
    09:00 +6°C° 0 mm 4 mps 762 mmHg 87%
    10:00 +7°C° 0 mm 4 mps 762 mmHg 85%
    11:00 +8°C° 0 mm 4 mps 762 mmHg 83%
    12:00 +10°C° 0 mm 4 mps 762 mmHg 81%
    13:00 +10°C° 0 mm 4 mps 762 mmHg 81%
    14:00 +11°C° 0 mm 4 mps 761 mmHg 81%
    15:00 +11°C° 0 mm 4 mps 761 mmHg 82%
    16:00 +10°C° 0 mm 4 mps 761 mmHg 85%
    17:00 +10°C° 0 mm 4 mps 761 mmHg 88%
    18:00 +8°C° 0 mm 4 mps 761 mmHg 91%
    19:00 +8°C° 0 mm 4 mps 761 mmHg 91%
    20:00 +10°C° 0 mm 4 mps 761 mmHg 91%
    21:00 +10°C° 0 mm 4 mps 760 mmHg 91%
    22:00 +10°C° 0.3 mm 4 mps 760 mmHg 92%
    23:00 +10°C° 0.3 mm 4 mps 760 mmHg 93%

    21 October, Monday

    Time Temperature Precipitation Wind Pressure Humidity
    00:00 +10°C° 0.3 mm 4 mps 760 mmHg 94%
    01:00 +10°C° 0.1 mm 4 mps 759 mmHg 93%
    02:00 +10°C° 0.1 mm 4 mps 759 mmHg 92%
    03:00 +10°C° 0.1 mm 4 mps 759 mmHg 91%
    04:00 +10°C° 0 mm 4 mps 759 mmHg 92%
    05:00 +10°C° 0 mm 4 mps 759 mmHg 92%
    06:00 +10°C° 0 mm 4 mps 758 mmHg 93%
    07:00 +10°C° 0 mm 4 mps 758 mmHg 92%
    08:00 +10°C° 0 mm 4 mps 758 mmHg 92%
    09:00 +10°C° 0 mm 3 mps 758 mmHg 91%
    10:00 +11°C° 0 mm 4 mps 758 mmHg 88%
    11:00 +12°C° 0 mm 4 mps 758 mmHg 85%
    12:00 +13°C° 0 mm 4 mps 758 mmHg 82%
    13:00 +13°C° 0 mm 4 mps 758 mmHg 81%
    14:00 +13°C° 0 mm 4 mps 757 mmHg 80%
    15:00 +14°C° 0 mm 4 mps 757 mmHg 79%
    16:00 +13°C° 0 mm 4 mps 757 mmHg 79%
    17:00 +13°C° 0 mm 4 mps 756 mmHg 80%
    18:00 +12°C° 0 mm 5 mps 756 mmHg 81%
    19:00 +12°C° 0 mm 5 mps 756 mmHg 81%
    20:00 +12°C° 0 mm 5 mps 755 mmHg 81%
    21:00 +12°C° 0 mm 5 mps 755 mmHg 81%
    22:00 +12°C° 0 mm 5 mps 755 mmHg 82%
    23:00 +11°C° 0 mm 4 mps 755 mmHg 84%

    22 October, Tuesday

    Time Temperature Precipitation Wind Pressure Humidity
    00:00 +11°C° 0 mm 4 mps 754 mmHg 85%
    01:00 +11°C° 0 mm 4 mps 754 mmHg 86%
    02:00 +11°C° 0 mm 4 mps 754 mmHg 88%
    03:00 +11°C° 0 mm 4 mps 754 mmHg 89%
    04:00 +10°C° 0 mm 3 mps 754 mmHg 91%
    05:00 +10°C° 0 mm 3 mps 754 mmHg 92%
    06:00 +10°C° 0 mm 3 mps 754 mmHg 94%
    07:00 +10°C° 0 mm 3 mps 754 mmHg 93%
    08:00 +10°C° 0 mm 3 mps 754 mmHg 92%
    09:00 +11°C° 0 mm 3 mps 754 mmHg 91%
    10:00 +11°C° 0.2 mm 3 mps 753 mmHg 91%
    11:00 +11°C° 0.2 mm 3 mps 753 mmHg 90%
    12:00 +11°C° 0.2 mm 3 mps 752 mmHg 90%
    13:00 +11°C° 0.3 mm 3 mps 752 mmHg 89%
    14:00 +11°C° 0.3 mm 3 mps 751 mmHg 88%
    15:00 +11°C° 0.3 mm 3 mps 751 mmHg 86%
    16:00 +11°C° 0.1 mm 3 mps 751 mmHg 87%
    17:00 +11°C° 0.1 mm 3 mps 751 mmHg 89%
    18:00 +12°C° 0.1 mm 2 mps 750 mmHg 90%
    19:00 +12°C° 0.3 mm 2 mps 750 mmHg 92%
    20:00 +10°C° 0.3 mm 2 mps 750 mmHg 94%
    21:00 +10°C° 0.3 mm 2 mps 750 mmHg 96%
    22:00 +10°C° 1 mm 2 mps 750 mmHg 96%
    23:00 +10°C° 1 mm 2 mps 750 mmHg 96%
    Show more